Wetbulb
54.75 54.84 55.15 55.31 55.55 56.08 56.32 56.26 56.21 56.45 56.75 57.15 57.07 56.08 55.36 55.30 54.77 47.38 44.48 52.04 55.47 60.52 56.26 46.13 45.18 44.43 43.98 41.47 42.60 40.11 32.95 30.17 30.99 32.85 35.12 38.54 37.97 40.21 43.69 42.46 44.77 45.01 44.15 45.99 47.95
54.26 54.53 54.78 54.91 55.36 55.83 56.16 56.12 56.04 56.08 56.40 56.67 56.90 56.79 54.98 54.97 45.62 43.52 53.03 57.88 58.61 58.79 46.72 43.62 42.25 42.03 38.15 38.47 37.99 35.97 31.19 31.31 33.79 33.77 33.45 36.80 38.76 39.01 39.23 39.75 39.71 40.93 43.15 44.75 47.13
53.39 53.89 54.14 54.38 55.10 55.82 56.01 55.98 56.13 56.02 56.18 56.06 56.45 56.55 56.31 50.69 39.78 41.71 55.50 57.22 58.04 53.94 47.62 44.12 42.80 41.10 36.31 36.24 35.38 33.36 29.78 32.99 34.79 36.11 35.69 37.14 37.28 40.24 37.11 36.30 38.18 38.07 40.04 42.13 45.40
52.81 53.12 53.55 53.98 54.47 55.18 55.77 55.90 55.83 55.63 55.60 56.06 56.68 57.87 54.75 44.48 31.29 45.23 55.81 55.96 56.54 50.17 46.10 42.90 40.65 36.29 34.07 33.40 36.23 33.31 35.06 34.95 37.58 38.88 38.04 36.11 39.40 36.80 38.66 36.10 41.22 40.56 41.61 40.93 42.12
52.74 52.62 53.18 53.64 54.17 54.60 54.95 55.45 55.37 55.36 55.52 55.96 57.46 56.29 45.41 39.51 39.82 48.89 53.58 51.79 49.88 47.27 44.01 41.48 38.92 35.41 32.80 34.44 35.41 34.29 33.99 36.86 37.22 38.22 36.91 39.18 36.78 36.30 35.92 38.14 40.82 41.59 39.87 38.60 40.68
52.92 52.64 52.62 53.24 53.63 53.82 54.33 54.90 55.17 55.26 55.38 55.84 57.52 54.87 40.74 35.16 47.02 47.81 46.99 48.47 47.66 45.56 43.35 43.04 39.66 38.15 36.14 34.65 33.48 35.05 36.13 35.17 36.68 36.11 37.09 35.36 33.68 34.87 34.21 36.94 36.66 37.37 37.07 37.74 38.63
52.99 52.60 52.67 52.98 53.54 53.72 54.29 54.27 54.56 55.01 55.28 55.86 57.14 46.41 41.22 39.46 46.26 46.42 46.93 46.15 47.16 46.04 43.28 43.69 42.41 39.51 36.69 33.98 37.33 35.36 32.53 34.27 35.12 35.76 34.34 36.46 31.87 31.10 33.49 35.53 34.03 34.31 34.98 36.59 37.46
52.99 52.75 52.72 52.88 53.07 53.72 54.17 54.32 54.60 54.32 55.41 56.23 55.90 42.49 37.62 45.86 45.46 46.35 46.51 46.63 47.81 47.68 45.73 44.43 43.54 40.43 38.65 38.16 35.45 32.05 30.68 26.95 32.35 35.08 35.22 33.58 26.96 32.44 33.60 32.03 32.40 32.74 32.43 34.31 35.64
53.33 53.19 52.76 53.07 53.31 53.82 54.02 55.35 54.28 54.53 55.03 54.43 43.30 38.63 34.57 48.86 43.61 45.19 45.30 44.04 45.15 45.58 44.40 45.67 41.72 36.55 36.41 29.91 27.44 28.90 24.30 26.33 28.99 33.73 33.46 31.85 27.64 32.41 33.22 32.27 31.24 31.43 31.94 33.04 34.03
53.86 53.38 53.14 53.44 53.68 54.32 55.06 54.61 53.35 50.74 47.81 45.04 43.84 36.43 40.27 38.64 42.54 43.92 44.41 45.13 43.04 41.64 40.64 39.02 35.50 31.60 30.74 26.76 21.03 25.57 24.04 26.86 24.86 30.73 32.62 29.50 28.43 31.60 32.15 31.70 30.17 30.61 31.08 31.80 32.89
54.27 53.27 53.16 53.22 53.65 53.34 48.58 44.03 40.64 38.54 40.29 35.90 36.17 36.61 39.23 42.85 43.80 42.00 43.81 42.86 41.83 38.40 31.63 34.42 30.90 28.17 28.80 30.72 30.49 29.31 25.82 23.86 27.19 31.86 30.60 28.61 28.70 31.06 31.41 30.43 30.21 31.18 31.29 31.52 32.47
54.27 53.08 52.76 52.42 52.94 51.55 45.62 41.29 39.64 40.91 34.37 38.57 39.14 39.07 41.24 41.42 36.96 40.31 44.75 37.27 36.50 31.24 32.84 30.35 28.89 31.56 33.52 32.73 30.83 29.51 26.90 24.09 28.45 31.34 30.25 29.38 28.74 30.71 31.11 30.98 31.25 31.28 31.54 31.54 32.27
53.90 52.97 52.59 52.58 53.18 46.10 43.04 42.65 46.98 44.24 34.47 34.87 38.28 37.65 38.98 41.16 36.68 37.77 41.32 37.39 33.64 31.18 29.85 27.19 30.56 34.79 32.48 30.10 29.67 29.17 27.02 25.73 26.78 29.89 29.66 27.03 24.33 27.57 30.90 31.38 31.97 32.64 32.58 32.31 31.90
53.42 52.53 51.93 52.48 44.67 42.33 41.23 46.05 46.92 44.98 31.09 31.51 33.87 37.08 39.78 40.03 35.69 41.40 40.38 36.95 34.09 30.68 29.95 29.43 32.95 31.32 29.72 29.67 29.82 27.71 30.75 29.66 29.48 25.86 22.01 26.43 17.95 24.24 27.95 29.70 30.96 31.53 31.43 31.34 31.45
52.40 51.11 51.55 49.21 42.16 39.72 43.87 46.27 45.45 42.66 27.00 32.56 33.85 41.11 39.59 35.94 35.44 37.85 39.49 37.36 30.89 31.39 29.04 27.74 29.99 29.17 28.68 29.78 31.76 28.35 30.81 29.71 29.20 26.71 23.61 24.32 16.66 23.45 27.13 28.08 29.74 30.40 31.17 31.42 31.44
51.56 50.39 50.27 46.07 42.97 43.71 45.65 44.82 43.31 34.78 27.15 29.61 33.94 33.60 33.16 35.39 35.58 37.56 35.39 37.55 35.75 30.83 30.84 29.61 33.23 30.93 29.89 31.52 32.33 32.66 30.51 26.80 25.94 24.62 11.52 24.03 19.40 21.44 23.85 28.33 29.15 30.17 30.93 31.44 30.04
50.86 50.08 47.39 46.55 39.79 44.80 44.03 41.66 33.81 32.25 32.44 29.53 29.71 32.57 31.18 30.52 32.47 33.23 30.53 28.24 25.58 21.79 17.15 26.23 28.35 29.80 32.00 28.32 30.20 27.93 21.86 7.73 9.23 6.79 11.29 21.75 19.64 23.50 26.95 29.59 30.47 30.67 30.95 31.28 29.73
50.53 48.00 46.53 45.13 45.24 44.02 42.45 36.93 27.83 32.01 30.20 31.09 31.11 30.93 28.39 30.34 30.38 31.49 29.73 25.48 27.78 23.34 15.75 16.66 18.56 27.40 30.36 29.84 27.14 27.87 23.53 12.00 8.14 8.16 11.46 22.54 19.18 26.10 29.52 32.20 32.15 32.21 31.67 31.24 29.54
49.84 43.96 42.99 43.24 44.39 43.49 38.82 32.02 33.06 33.72 32.97 30.88 30.24 27.91 27.69 29.63 29.69 28.98 26.76 25.20 26.74 26.19 19.87 15.13 18.72 29.06 30.27 30.56 28.86 25.08 19.69 26.89 16.46 14.72 12.49 17.37 21.80 27.20 30.28 31.11 31.54 31.71 31.72 31.30 30.02
44.03 42.24 42.33 44.46 43.50 41.33 34.24 33.79 33.11 34.45 33.40 32.55 31.06 29.60 26.51 26.91 27.39 27.12 26.48 29.12 28.58 29.99 27.77 20.68 17.48 25.11 29.07 31.11 30.35 28.05 29.83 16.35 13.86 4.75 6.04 11.31 14.88 20.99 27.48 29.73 30.19 30.46 30.37 30.80 30.31
43.58 39.40 42.58 44.09 42.43 37.03 29.07 31.97 33.65 34.84 35.32 31.87 31.02 28.58 28.16 27.68 28.35 26.96 27.89 29.04 30.02 29.29 28.57 22.79 20.30 20.65 26.40 22.01 23.51 26.14 21.75 25.11 22.94 19.09 6.89 2.13 15.68 22.97 27.51 29.26 29.41 29.86 30.76 30.33 30.20
42.06 33.68 42.68 43.02 33.80 22.50 27.70 32.43 35.82 33.63 35.21 32.68 32.30 31.58 30.41 29.20 27.47 27.19 28.10 28.31 32.15 30.98 27.30 27.75 22.12 16.44 18.85 24.94 28.10 26.59 25.08 24.73 14.39 8.96 13.41 14.21 14.74 27.53 28.46 29.24 29.89 30.21 31.32 31.18 30.46
36.66 35.35 42.06 41.54 29.08 22.94 28.81 32.38 33.72 32.70 32.97 31.32 31.48 32.91 32.29 29.89 27.46 27.90 28.56 31.05 32.03 30.56 28.38 29.16 20.09 14.88 19.64 21.74 25.14 24.01 27.03 27.17 22.88 20.21 14.03 8.59 15.08 26.13 26.43 28.55 30.18 29.98 30.56 30.37 29.81
38.18 32.12 32.83 33.56 32.22 32.29 29.78 30.73 31.16 34.95 33.65 33.00 31.74 33.10 31.18 28.49 29.29 27.25 28.51 30.41 32.20 31.75 36.14 31.27 16.58 19.37 21.40 22.78 22.42 18.75 22.55 27.00 21.39 8.51 12.53 14.24 14.18 25.27 18.92 20.04 24.87 24.86 25.11 24.90 25.54
38.84 33.74 33.25 30.16 27.73 31.30 34.22 33.16 31.24 30.32 34.11 33.55 30.27 31.43 31.47 28.38 24.70 27.20 28.86 28.82 30.67 35.68 30.46 28.30 18.11 13.35 18.11 21.13 23.17 22.61 20.79 22.61 17.83 20.45 15.17 14.61 13.97 21.07 23.54 22.78 24.02 23.83 26.74 27.20 26.30
35.81 34.83 32.67 29.33 32.83 32.26 33.96 30.31 31.71 32.27 32.25 30.54 29.76 32.36 31.65 29.62 31.09 28.30 29.08 28.44 27.99 29.92 28.62 28.46 19.75 17.69 16.61 16.75 19.91 18.17 22.22 21.91 19.41 15.79 17.68 14.26 20.43 28.44 29.67 27.32 24.36 25.39 27.04 27.09 27.08
42.76 41.39 42.40 35.41 32.75 34.58 35.52 33.04 33.88 35.39 34.40 35.45 33.49 31.81 30.11 31.73 31.58 30.47 31.72 31.38 30.71 29.31 27.16 25.92 20.77 16.20 18.66 13.14 12.05 18.01 18.04 21.69 21.66 22.63 21.85 17.68 24.70 27.17 26.25 29.18 28.39 30.18 30.45 29.30 30.20
MSLP
1021.56 1021.23 1020.97 1020.97 1020.77 1020.67 1020.57 1020.25 1019.98 1019.95 1019.91 1019.87 1019.40 1019.06 1018.70 1018.40 1018.09 1018.02 1018.59 1019.45 1018.56 1017.50 1016.85 1016.69 1016.64 1016.61 1016.79 1018.11 1018.79 1019.33 1020.98 1022.52 1022.57 1022.36 1022.03 1021.89 1021.89 1022.14 1022.24 1022.42 1022.65 1023.05 1023.50 1023.33 1022.24
1021.46 1021.44 1021.23 1020.84 1020.85 1020.49 1020.59 1020.46 1020.32 1020.03 1019.91 1019.92 1019.85 1019.40 1018.86 1018.69 1018.64 1018.72 1019.07 1018.67 1018.09 1017.54 1017.26 1017.31 1017.41 1017.38 1018.52 1019.39 1019.84 1020.42 1021.99 1022.42 1022.39 1022.23 1022.13 1022.07 1022.32 1022.73 1022.82 1023.21 1023.53 1023.80 1023.84 1023.54 1022.61
1021.50 1021.35 1021.26 1020.91 1020.69 1020.80 1020.50 1020.45 1020.31 1020.18 1020.00 1019.74 1019.79 1019.64 1019.08 1018.89 1019.04 1019.62 1018.95 1018.60 1018.09 1017.70 1017.52 1017.58 1017.64 1018.20 1019.54 1020.11 1020.94 1021.40 1022.35 1022.36 1022.20 1022.14 1022.17 1022.36 1022.77 1023.32 1023.65 1024.18 1024.73 1024.86 1024.30 1023.96 1023.39
1021.55 1021.52 1021.34 1021.04 1020.40 1020.39 1020.61 1020.38 1020.32 1020.24 1020.14 1019.75 1019.48 1019.45 1019.27 1019.16 1020.30 1019.91 1019.38 1018.90 1018.23 1017.65 1017.70 1017.96 1018.40 1019.45 1020.52 1021.19 1021.44 1022.15 1022.48 1022.38 1022.46 1022.44 1022.32 1022.81 1023.12 1023.73 1024.14 1024.94 1025.07 1025.01 1024.69 1024.48 1023.82
1021.62 1021.64 1021.56 1021.12 1020.69 1020.51 1020.39 1020.40 1020.34 1020.23 1020.08 1019.94 1019.35 1019.39 1019.43 1019.87 1020.81 1020.07 1019.62 1019.14 1018.59 1018.61 1018.54 1018.58 1019.43 1020.23 1021.03 1021.61 1021.89 1022.21 1022.58 1022.60 1022.75 1022.84 1023.05 1023.05 1023.64 1024.17 1024.70 1024.96 1025.16 1025.16 1025.02 1024.73 1024.28
1021.98 1021.70 1021.59 1021.24 1020.76 1020.42 1020.37 1020.39 1020.30 1020.24 1020.17 1019.94 1019.66 1019.47 1019.66 1020.53 1020.52 1020.53 1020.12 1019.33 1019.41 1019.66 1019.12 1019.15 1020.24 1020.37 1021.25 1021.91 1022.18 1022.56 1022.81 1023.02 1023.14 1023.44 1023.39 1023.61 1023.94 1024.01 1024.85 1025.07 1025.33 1025.43 1025.32 1025.06 1024.70
1021.94 1021.58 1021.72 1021.27 1020.94 1020.66 1020.42 1020.24 1020.15 1020.26 1020.16 1019.95 1019.74 1019.77 1020.28 1021.10 1020.80 1020.51 1020.33 1019.84 1019.91 1019.99 1019.68 1020.09 1020.40 1020.65 1021.46 1022.35 1022.56 1022.84 1023.22 1023.45 1023.54 1023.63 1023.68 1023.74 1024.19 1024.44 1024.89 1025.17 1025.55 1025.59 1025.55 1025.40 1024.99
1021.98 1021.75 1021.68 1021.39 1021.06 1020.70 1020.32 1020.01 1019.87 1020.01 1020.06 1020.00 1019.78 1020.05 1020.65 1020.50 1020.59 1020.60 1020.49 1020.11 1020.10 1019.91 1019.97 1020.33 1020.57 1021.31 1022.31 1022.92 1023.14 1023.92 1024.10 1024.51 1024.22 1024.17 1023.86 1024.14 1024.20 1024.45 1024.73 1025.29 1025.74 1025.83 1025.84 1025.61 1025.26
1022.02 1021.71 1021.51 1021.42 1020.93 1020.75 1020.26 1019.96 1019.64 1019.60 1019.90 1019.92 1020.09 1020.29 1021.11 1020.58 1020.82 1021.16 1021.23 1021.16 1020.81 1020.24 1020.52 1020.60 1021.20 1022.94 1023.44 1024.14 1024.65 1025.24 1025.59 1025.84 1025.00 1024.84 1024.77 1024.55 1024.49 1024.54 1024.79 1025.28 1025.80 1025.98 1026.10 1025.77 1025.38
1022.03 1021.68 1021.33 1021.37 1021.17 1020.50 1020.07 1019.85 1019.64 1019.56 1019.92 1020.22 1020.57 1021.17 1021.33 1021.84 1021.58 1021.66 1021.36 1021.42 1021.36 1020.91 1021.18 1022.08 1023.23 1024.52 1025.41 1025.43 1025.89 1026.45 1026.61 1026.61 1026.07 1025.58 1025.21 1024.88 1024.71 1024.60 1024.76 1025.27 1025.71 1025.91 1026.11 1025.99 1025.54
1022.07 1021.42 1021.16 1021.27 1021.25 1020.54 1020.07 1020.08 1020.64 1020.80 1021.16 1022.44 1022.48 1022.36 1022.36 1022.14 1021.76 1021.89 1022.00 1021.92 1021.65 1022.42 1023.61 1024.16 1025.11 1026.63 1026.92 1026.61 1025.88 1026.32 1026.64 1027.19 1026.68 1026.15 1026.21 1025.34 1025.10 1024.61 1024.63 1025.12 1025.45 1025.61 1025.80 1025.89 1025.56
1021.85 1021.57 1020.97 1021.17 1021.17 1020.64 1020.63 1021.05 1021.57 1021.75 1022.29 1022.82 1022.73 1022.71 1022.68 1022.50 1022.27 1022.09 1022.15 1022.87 1022.96 1024.35 1024.84 1025.26 1026.46 1026.88 1026.92 1026.89 1026.48 1026.64 1026.96 1027.56 1026.93 1026.59 1026.76 1025.82 1025.10 1024.39 1024.40 1024.62 1024.92 1025.33 1025.50 1025.67 1025.52
1021.77 1021.64 1020.88 1021.09 1020.97 1021.09 1021.66 1022.09 1021.89 1021.68 1022.04 1023.00 1022.90 1022.74 1022.98 1022.77 1023.22 1023.03 1023.14 1023.55 1024.16 1025.22 1026.04 1026.36 1027.13 1026.83 1027.00 1027.34 1026.88 1027.19 1027.65 1028.08 1028.18 1026.99 1026.50 1026.23 1025.41 1024.68 1024.24 1024.39 1024.63 1024.88 1025.13 1025.29 1025.44
1021.73 1021.64 1020.94 1020.90 1021.36 1021.66 1022.20 1022.29 1021.86 1021.70 1022.38 1023.23 1022.84 1022.86 1023.15 1022.86 1023.52 1023.49 1023.65 1023.83 1024.72 1025.93 1026.59 1027.26 1027.29 1027.29 1027.32 1027.75 1027.34 1027.08 1027.31 1028.00 1028.22 1028.20 1027.85 1027.08 1026.66 1025.09 1024.52 1024.29 1024.39 1024.61 1024.91 1025.21 1025.26
1021.75 1021.50 1021.06 1021.10 1021.31 1022.00 1022.12 1022.19 1022.11 1021.65 1023.13 1023.47 1022.92 1022.73 1023.09 1023.26 1023.92 1023.87 1024.12 1023.85 1025.23 1026.23 1026.76 1027.88 1027.75 1027.80 1027.74 1027.92 1027.71 1027.39 1027.46 1028.04 1028.70 1028.91 1028.87 1027.99 1027.89 1025.01 1024.72 1024.25 1024.06 1024.14 1024.53 1025.00 1025.17
1021.82 1021.47 1021.25 1021.56 1021.62 1022.24 1022.10 1022.06 1022.21 1022.32 1023.00 1023.32 1023.13 1022.88 1023.28 1023.69 1023.90 1024.00 1024.22 1024.59 1025.80 1026.47 1027.11 1027.87 1027.86 1028.15 1028.09 1028.07 1027.88 1027.59 1027.97 1028.71 1029.55 1030.04 1029.99 1028.90 1028.47 1025.67 1024.85 1024.18 1023.88 1023.90 1024.12 1024.50 1024.94
1021.88 1021.56 1021.32 1021.72 1022.06 1022.04 1022.11 1022.10 1022.71 1023.09 1023.61 1023.49 1023.38 1023.18 1023.49 1024.15 1024.37 1024.45 1025.09 1025.96 1027.04 1027.77 1028.55 1028.50 1028.39 1028.40 1028.40 1028.40 1028.08 1028.39 1028.57 1030.23 1031.17 1031.26 1030.72 1029.44 1028.68 1025.54 1024.17 1023.75 1023.72 1023.76 1024.12 1024.32 1024.60
1021.74 1021.61 1021.91 1022.18 1021.95 1022.32 1021.95 1022.25 1023.29 1022.92 1022.91 1023.40 1023.53 1023.50 1023.90 1024.33 1024.72 1024.98 1025.62 1026.88 1027.57 1028.05 1029.70 1029.92 1029.28 1029.12 1028.68 1028.85 1028.99 1029.20 1029.21 1031.12 1033.04 1033.44 1031.98 1029.64 1027.94 1024.72 1023.81 1023.52 1023.52 1023.67 1023.83 1024.15 1024.44
1021.67 1022.01 1021.92 1022.48 1022.21 1022.22 1022.32 1022.95 1022.79 1022.80 1022.73 1023.28 1023.82 1023.79 1024.18 1024.51 1024.80 1025.13 1025.96 1027.01 1027.74 1028.40 1029.12 1030.55 1030.07 1029.49 1029.17 1029.09 1029.78 1029.68 1030.34 1031.45 1032.95 1034.60 1033.59 1030.19 1027.43 1024.69 1023.67 1023.55 1023.49 1023.70 1023.85 1023.94 1024.33
1021.70 1022.14 1022.46 1022.43 1022.26 1022.58 1022.90 1023.25 1022.74 1022.54 1022.79 1023.00 1023.36 1023.70 1024.12 1024.48 1024.88 1025.30 1025.95 1026.76 1027.72 1028.44 1028.97 1030.28 1030.37 1030.03 1029.68 1029.28 1029.65 1029.42 1030.23 1031.24 1032.71 1034.33 1034.10 1031.04 1029.00 1025.87 1024.24 1023.67 1023.57 1023.73 1023.88 1023.94 1024.17
1021.90 1022.86 1022.33 1022.04 1022.54 1022.86 1023.57 1023.43 1023.08 1022.96 1022.58 1022.96 1023.21 1023.60 1023.82 1024.32 1024.78 1025.39 1025.94 1026.78 1027.48 1028.50 1029.15 1029.64 1030.53 1030.85 1030.26 1029.99 1030.24 1030.33 1030.45 1031.24 1032.46 1033.91 1034.61 1033.08 1028.45 1025.35 1024.72 1024.18 1024.04 1023.84 1023.91 1024.02 1024.27
1021.77 1022.89 1022.64 1022.39 1023.42 1023.57 1023.61 1022.64 1022.85 1023.24 1023.02 1023.08 1023.01 1023.06 1023.57 1024.14 1024.84 1025.47 1025.89 1026.51 1027.12 1027.84 1028.76 1029.29 1030.15 1030.78 1030.74 1030.50 1030.60 1030.44 1030.64 1030.81 1032.37 1034.27 1034.38 1033.70 1028.62 1025.30 1025.00 1024.76 1024.67 1024.23 1024.00 1023.99 1024.22
1020.98 1022.71 1023.03 1023.05 1022.84 1024.05 1023.29 1022.91 1022.64 1023.13 1023.13 1023.17 1023.04 1023.02 1023.49 1024.21 1025.14 1025.41 1025.96 1026.62 1027.14 1027.74 1028.00 1028.81 1030.04 1030.83 1030.61 1030.97 1030.82 1030.77 1030.80 1031.16 1031.94 1033.35 1034.02 1033.20 1028.16 1025.73 1025.42 1025.11 1024.81 1024.76 1024.26 1024.17 1024.16
1020.50 1022.74 1023.56 1023.55 1022.39 1022.11 1022.91 1022.66 1022.71 1022.89 1022.88 1022.90 1023.18 1023.35 1023.64 1024.59 1025.14 1025.71 1026.37 1026.84 1027.11 1027.56 1027.80 1028.40 1030.06 1030.59 1030.43 1029.91 1030.23 1031.19 1030.84 1031.12 1031.56 1033.04 1033.52 1031.43 1028.16 1026.21 1025.84 1025.83 1025.17 1024.99 1024.55 1024.41 1024.40
1018.70 1020.23 1020.84 1022.31 1022.13 1021.21 1021.07 1021.12 1021.78 1022.46 1022.84 1023.06 1023.23 1023.18 1023.33 1024.80 1025.56 1025.84 1026.41 1027.02 1027.36 1027.53 1028.22 1028.91 1030.18 1030.99 1030.39 1030.15 1029.96 1030.08 1030.24 1030.77 1031.24 1031.07 1031.08 1029.34 1028.68 1025.37 1024.68 1025.23 1025.19 1024.88 1024.70 1024.52 1024.36
1017.18 1018.41 1019.77 1020.08 1020.12 1020.87 1020.41 1020.52 1020.54 1021.43 1021.72 1022.49 1022.62 1022.33 1023.28 1023.79 1023.52 1024.38 1025.64 1026.50 1026.57 1028.03 1028.59 1029.18 1030.04 1030.97 1030.73 1030.45 1030.13 1029.83 1029.33 1029.74 1030.34 1030.38 1029.47 1028.32 1026.87 1024.22 1023.33 1023.71 1024.25 1024.46 1024.56 1024.25 1023.98
1015.55 1016.60 1016.82 1018.49 1019.44 1019.80 1018.63 1019.04 1019.39 1019.86 1021.12 1021.13 1021.70 1022.53 1023.35 1022.99 1023.88 1024.43 1025.02 1025.47 1025.89 1027.01 1028.40 1029.13 1030.07 1031.17 1030.69 1030.11 1029.40 1028.53 1026.51 1027.54 1027.63 1027.30 1027.21 1026.47 1023.52 1022.84 1022.76 1023.11 1023.29 1023.36 1023.64 1023.59 1023.29
Wind_Speed
9 9 10 11 11 11 11 9 9 10 12 13 12 11 10 11 8 6 11 8 12 18 13 6 4 7 6 6 7 3 6 2 1 3 5 4 4 5 1 4 4 4 4 9 16
8 10 11 11 11 10 10 9 10 10 11 12 13 11 9 9 5 9 6 21 20 15 6 8 6 7 6 5 5 7 5 2 1 2 4 3 5 5 3 6 5 3 7 10 12
8 9 10 11 12 11 10 9 9 10 11 11 12 11 8 4 4 6 15 23 20 10 2 1 4 6 7 4 6 3 4 2 3 3 2 3 3 3 4 5 2 7 11 10 10
9 9 9 10 10 10 11 9 9 9 11 11 12 10 5 3 4 5 18 21 16 8 3 6 8 5 6 5 4 7 4 2 4 6 2 2 2 3 6 1 3 5 6 6 9
8 9 10 10 11 11 11 10 9 10 10 11 10 3 2 8 3 6 17 14 6 6 6 4 8 2 6 4 4 6 1 4 4 6 4 5 4 3 3 2 5 5 6 7 8
9 9 11 11 11 10 10 10 9 9 9 9 9 0 2 7 4 8 10 7 8 7 7 9 4 1 7 4 4 3 4 3 5 4 3 3 2 2 1 2 6 6 6 7 6
8 9 11 12 12 11 9 8 7 8 8 8 9 3 8 5 3 7 8 3 4 6 5 4 2 4 3 3 2 3 4 5 8 7 2 5 3 3 2 2 5 7 7 7 7
7 9 10 12 13 11 9 7 6 7 8 6 4 3 3 1 2 6 8 5 8 4 4 6 4 7 6 2 7 6 5 4 3 9 2 2 5 2 2 3 6 8 8 7 7
6 7 10 12 11 11 10 8 3 5 5 4 3 4 2 5 6 5 5 4 8 3 8 4 7 5 7 3 5 8 2 4 8 3 5 4 3 2 1 2 5 7 7 7 7
5 7 9 12 11 11 10 3 4 5 6 2 2 4 6 4 4 5 4 5 4 3 7 11 7 6 6 4 2 1 3 5 5 6 7 4 4 3 1 1 5 6 7 7 7
5 6 8 11 12 11 5 3 5 5 11 3 1 3 3 7 2 7 5 6 4 9 6 6 10 5 4 7 5 5 3 3 5 3 6 4 6 8 3 3 5 6 6 6 7
5 8 9 11 13 6 3 4 3 3 8 2 1 2 1 1 3 9 7 3 7 5 5 7 4 2 1 5 5 4 3 3 7 5 3 5 10 7 4 4 4 4 7 6 6
4 8 8 10 8 4 4 4 1 1 6 2 1 2 4 3 2 7 6 2 6 7 6 5 0 3 3 4 2 3 4 3 4 8 3 7 6 4 3 3 3 5 5 5 6
3 7 9 11 3 2 3 1 0 1 7 2 2 4 3 1 5 2 4 3 6 4 2 4 4 2 2 2 3 3 3 3 4 6 4 5 5 5 4 7 5 7 6 7 7
3 6 7 6 5 1 5 1 2 2 3 1 2 1 2 4 2 6 2 6 5 4 4 1 5 4 2 3 4 3 1 2 2 3 4 2 3 8 4 6 5 6 7 7 6
3 4 5 2 3 0 1 2 2 8 5 2 2 2 2 5 2 3 4 8 3 5 5 2 1 1 2 2 4 3 3 5 4 2 4 3 4 7 3 5 5 4 5 6 5
3 5 4 2 1 2 2 4 7 4 2 2 1 2 3 3 3 4 5 6 1 5 5 6 2 3 1 2 3 3 5 6 8 7 6 2 3 10 5 5 5 5 6 6 5
3 2 4 2 2 2 1 7 3 2 4 0 1 2 3 2 2 2 3 1 1 5 5 5 7 3 4 2 2 4 4 8 4 3 7 2 5 6 4 6 6 6 6 5 5
7 1 3 2 2 1 5 4 9 5 5 8 2 2 2 1 1 2 1 4 3 4 7 5 5 3 2 2 3 3 6 3 7 3 3 4 8 8 4 8 7 8 6 8 6
3 1 1 3 3 2 6 5 3 3 6 2 6 2 4 3 2 1 2 2 4 0 1 4 3 1 3 2 3 1 7 5 4 4 7 6 7 6 5 7 6 7 7 7 6
4 3 1 4 2 4 5 6 2 0 2 5 5 4 3 5 4 3 3 1 3 4 1 5 5 5 2 1 3 1 2 5 5 4 5 3 9 8 6 5 7 8 8 7 7
4 1 3 2 3 2 5 8 4 3 0 1 3 4 6 6 5 4 5 3 5 7 4 3 5 3 6 2 1 1 3 3 7 5 2 4 12 2 7 7 7 9 9 7 5
5 1 2 3 5 3 2 4 4 4 4 5 5 2 3 5 1 4 4 1 5 4 5 6 1 3 6 5 4 3 4 2 6 4 6 8 10 2 7 8 8 9 9 8 7
6 3 4 3 2 9 6 4 7 2 4 4 4 3 5 1 1 5 4 3 5 2 6 6 2 6 7 6 5 2 3 6 6 5 5 9 8 15 7 8 11 11 8 8 7
2 6 6 7 5 5 8 11 9 9 4 3 2 6 7 5 2 6 3 3 1 7 3 3 4 2 4 3 1 4 5 9 9 6 8 6 9 10 10 8 9 7 7 8 8
9 7 1 3 8 8 9 10 12 5 11 7 6 9 6 6 10 11 8 6 6 3 6 2 2 2 5 1 1 5 9 10 6 3 10 1 16 11 9 2 4 7 8 8 7
4 2 4 8 6 11 15 11 12 12 5 5 9 7 8 11 3 2 4 4 7 10 8 7 6 3 6 2 3 8 10 15 7 7 9 9 16 4 2 5 5 7 6 10 9
Wind_Direction
16 22 21 12 12 9 7 11 15 9 5 353 353 358 359 0 2 33 42 321 326 328 336 300 6 13 33 53 33 80 63 80 13 24 281 334 20 4 5 66 33 52 23 320 321
21 12 14 16 8 13 4 4 1 1 0 351 343 344 354 356 40 46 351 345 338 343 15 22 29 28 51 25 24 65 79 135 212 255 277 311 61 312 29 11 3 342 354 334 336
20 15 11 13 11 4 6 2 357 354 354 352 337 328 337 343 57 335 340 341 336 349 136 68 73 60 62 13 0 45 98 180 335 281 256 335 50 32 346 31 20 307 325 343 354
22 10 6 6 15 9 2 3 357 356 351 346 340 314 334 6 84 291 338 336 342 5 45 32 38 52 67 55 346 90 52 70 350 352 37 31 98 45 48 324 308 314 329 331 2
20 7 359 3 7 6 4 356 350 350 349 341 349 46 6 47 29 308 335 336 354 7 39 77 57 91 86 79 43 78 99 50 2 56 73 65 56 81 38 342 342 342 356 4 3
3 4 355 355 359 1 358 349 340 338 341 342 346 347 60 70 290 332 334 338 22 347 29 43 84 46 88 72 77 98 91 58 27 12 39 94 23 115 54 13 0 2 1 1 2
360 3 349 348 349 349 347 341 339 331 331 341 347 74 60 172 333 338 346 355 10 321 54 49 61 77 112 88 359 84 64 11 12 340 29 157 13 339 304 43 358 336 348 356 355
356 352 347 344 343 340 335 329 329 320 316 322 354 53 94 330 293 12 337 347 358 347 79 34 71 93 60 310 32 47 54 11 355 3 4 153 282 295 16 26 340 333 339 341 340
339 346 351 337 338 329 323 315 328 327 322 339 35 79 59 328 35 325 16 353 301 21 34 55 63 81 26 42 37 22 22 337 324 64 342 16 282 252 49 29 321 318 326 330 334
326 337 353 336 329 329 321 288 6 68 14 36 59 44 9 329 314 337 337 8 349 3 23 32 45 62 19 32 139 10 17 321 285 316 349 310 283 259 200 259 294 307 321 328 333
317 335 352 340 326 346 10 64 29 360 48 78 266 120 335 303 285 360 3 345 15 51 41 11 60 51 307 285 132 131 96 304 278 308 349 286 288 279 239 252 288 302 315 323 321
312 327 353 334 325 356 52 87 106 181 95 19 27 49 324 311 20 359 14 61 49 60 341 26 67 336 275 320 97 70 64 315 282 276 306 321 292 273 216 237 227 264 297 308 316
312 324 351 325 325 30 59 119 119 197 88 27 41 55 303 36 72 337 20 62 81 54 15 106 298 1 133 332 121 66 78 310 255 320 250 330 310 311 282 249 236 250 259 290 288
310 330 351 324 66 213 61 253 167 283 78 317 355 5 334 103 44 336 358 109 41 133 87 70 342 22 74 305 288 109 141 272 304 18 309 35 286 295 297 282 252 258 256 273 289
289 350 358 11 137 55 155 252 289 68 20 347 3 253 4 85 93 6 1 29 109 128 107 275 8 0 32 287 304 194 83 92 349 350 12 354 64 271 341 310 302 285 249 257 268
255 356 345 332 61 244 175 91 6 47 264 328 310 20 51 15 33 313 40 44 130 95 45 93 317 353 298 310 277 306 118 64 57 15 22 327 96 286 268 243 293 295 272 261 270
207 49 75 281 122 163 255 67 38 130 21 261 193 58 86 15 26 46 29 26 23 60 0 352 308 311 47 300 293 42 50 355 358 10 221 1 13 249 277 262 244 277 284 277 256
178 79 29 11 89 274 82 63 80 266 195 238 121 94 101 1 13 43 80 20 6 71 96 119 321 339 3 89 292 4 114 139 229 311 287 328 238 258 233 289 266 272 265 274 242
138 359 58 324 340 12 74 84 199 208 149 145 51 92 344 51 99 54 89 191 174 172 131 123 284 318 53 13 95 282 49 141 100 32 348 279 291 299 282 286 284 280 290 280 261
119 131 186 300 10 28 81 234 170 154 126 155 156 146 177 210 167 145 191 180 140 317 282 195 1 253 325 39 350 119 164 71 7 45 316 303 292 252 290 275 283 288 287 293 288
95 251 184 21 35 58 157 213 206 284 122 145 185 139 183 182 183 191 207 206 165 150 183 138 106 282 21 164 181 360 37 58 104 114 153 304 274 218 239 273 272 276 279 280 281
148 309 332 51 89 342 161 173 137 166 110 136 134 119 178 159 167 229 213 224 157 159 151 162 136 233 216 234 339 279 225 145 120 253 128 137 274 289 257 284 293 282 284 285 274
111 97 316 275 156 250 313 116 146 142 201 169 173 184 124 178 196 183 177 4 159 177 174 167 296 352 345 11 0 230 207 125 92 71 200 137 262 329 305 296 280 278 290 293 294
112 141 318 333 281 150 145 191 166 226 154 159 145 116 118 100 351 191 175 175 182 143 115 104 106 181 195 187 131 195 220 182 129 122 175 232 288 299 293 286 297 293 281 289 291
143 201 181 190 255 171 169 165 152 174 221 205 122 220 166 144 27 212 160 139 67 149 91 142 211 173 271 266 204 208 186 194 191 192 170 248 220 253 265 272 279 282 291 297 304
147 148 128 146 148 147 185 200 168 156 149 216 199 179 182 185 191 196 147 194 188 163 163 167 230 123 288 309 99 269 222 205 209 252 281 80 285 239 280 235 285 275 282 278 274
127 37 125 167 155 180 209 181 196 138 216 166 202 117 192 224 122 47 79 78 135 148 172 155 136 111 270 346 345 302 222 185 187 209 169 185 220 208 304 259 255 281 260 264 266